Home > Weather > Scottsdale > Past weeks

Flag for U.S.A. Weather for the Past 2 Weeks in Scottsdale, Arizona, U.S.A.

Now
41 °F

Clear.


Feels Like: 41 °F
Forecast: 43 / 69 °F
Wind: No wind

Location: Scottsdale Airport

Current Time: Feb 6, 2016 at 6:45:09 AM

Latest Report: Feb 6, 2016 at 5:53 AM


Visibility: 10 mi

Pressure: 30.31 "Hg

Humidity: 43%

Dew point: 20 °F

Location of ScottsdaleLocation

Historic Weather in Scottsdale — Graph

°F

Scottsdale Temperature Yesterday

Maximum temperature yesterday: 67 °F (at 3:53 PM)
Minimum temperature yesterday: 42 °F (at 12:53 AM)
Average temperature yesterday: 56 °F

High & Low Weather Summary for the Past Weeks

 TemperatureHumidityPressure
High72 °F (Jan 22, 2:53 PM)90% (Jan 31, 10:56 PM)30.37 "Hg (Jan 31, 10:56 PM)
Low32 °F (Feb 3, 6:53 AM)9% (Jan 22, 2:53 PM)29.53 "Hg (Jan 31, 9:53 PM)
Average53 °F35%30.07 "Hg
* Reported Jan 22 5:53 AM — Feb 6 5:53 AM, Scottsdale, Weather by CustomWeather, © 2016

Note: Actual official high and low records may vary slightly from our data, if they occured in-between our weather recording intervals... More about our weather records

Advertising

Scottsdale Weather History for the Previous 24 Hours

 ConditionsComfort  
Time TempWeatherWind HumidityBarometerVisibility
5:53 AM
Sat, Feb 6
41 °FClear.No wind43%30.31 "Hg10 mi
4:53 AM42 °FClear.No wind39%30.31 "Hg10 mi
3:53 AM48 °FClear.5 mph28%30.31 "Hg10 mi
2:53 AM43 °FClear.No wind40%30.32 "Hg10 mi
1:53 AM46 °FClear.No wind31%30.33 "Hg10 mi
12:53 AM50 °FClear.No wind22%30.33 "Hg10 mi
11:53 PM
Fri, Feb 5
55 °FClear.No wind16%30.32 "Hg10 mi
10:53 PM58 °FClear.12 mph12%30.33 "Hg10 mi
9:53 PM57 °FClear.10 mph15%30.32 "Hg10 mi
8:53 PM58 °FClear.10 mph15%30.32 "Hg10 mi
7:53 PM60 °FClear.6 mph14%30.29 "Hg10 mi
6:53 PM62 °FClear.5 mph16%30.28 "Hg10 mi
4:53 PM66 °FSunny.No wind13%30.25 "Hg10 mi
3:53 PM67 °FSunny.7 mph12%30.27 "Hg10 mi
2:53 PM66 °FSunny.12 mph13%30.27 "Hg10 mi
1:53 PM65 °FSunny.13 mph13%30.29 "Hg10 mi
12:53 PM63 °FSunny.12 mph16%30.32 "Hg10 mi
11:53 AM61 °FSunny.16 mph17%30.35 "Hg10 mi
10:53 AM59 °FSunny.13 mph19%30.36 "Hg10 mi
9:53 AM56 °FSunny.No wind24%30.36 "Hg10 mi
8:53 AM48 °FSunny.3 mph39%30.34 "Hg10 mi
7:53 AM44 °FSunny.No wind41%30.31 "Hg10 mi
6:53 AM50 °FClear.5 mph28%30.28 "Hg10 mi
Weather by CustomWeather, © 2016

See weather overviewHow to use our weather pages